Location: Gälforsberget
(66.6500°N, 22.4167°E)
Time: 12:32:52
(UTC+00:00)

Helios 1A - Pass Details

Date: 11 April 2026
Orbit: 541 x 559 km, 98.2° (Epoch: 10 May)

Event Time Altitude Azimuth Distance (km) Brightness Sun altitude
Rises 19:50:02 0° 22° (NNE) 2,764 6.8 -9.3°
Reaches altitude 10° 19:52:38 10° 39° (NE) 1,861 5.7 -9.5°
Maximum altitude 19:55:42 21° 88° (E) 1,305 4.4 -9.7°
Enters shadow 19:58:01 13° 130° (SE) 1,640 4.6 -9.8°
